Temp
16 18 19 21 21 19 18 19 19 21 13 14 17 18 19 19 17 15 16 14 13 11 10 9 8 7 6 6 6 7 7 6 6 6 6 6 6 6 6 6 7 7 7 7
17 18 17 16 15 16 17 17 18 18 13 13 17 17 19 19 15 16 15 13 12 11 10 8 8 7 6 6 6 7 7 7 6 6 6 5 5 6 6 6 6 6 7 7
18 16 13 14 14 15 16 17 18 16 14 14 13 17 20 16 15 13 12 12 12 11 10 8 8 7 6 6 6 6 7 7 6 6 5 5 5 5 6 6 6 6 6 6
17 12 13 14 15 15 15 13 13 13 14 15 14 16 21 19 15 14 13 12 11 11 11 9 8 7 6 6 5 5 6 6 6 6 6 6 6 6 5 5 5 5 6 6
15 12 12 13 14 14 13 11 12 11 12 11 15 11 17 18 17 16 15 13 11 10 10 9 8 7 6 5 5 6 5 6 6 6 5 5 4 4 4 5 5 5 5 5
12 9 11 11 9 10 10 11 11 11 12 10 11 14 18 20 17 19 15 12 9 8 8 8 7 6 6 5 5 5 6 5 5 5 5 4 4 5 5 5 5 5 4 4
12 11 8 9 10 9 10 12 13 12 10 13 10 11 16 17 13 12 15 11 8 7 7 7 6 5 4 4 5 5 5 5 5 4 5 4 4 4 4 4 4 4 4 4
16 14 9 7 8 8 10 8 13 13 16 17 10 12 16 10 9 10 11 8 6 6 7 6 5 5 4 4 5 4 4 5 5 4 4 4 4 4 4 3 3 3 3 3
14 14 6 6 7 7 10 9 10 8 8 10 16 17 11 10 9 8 8 7 6 5 6 6 5 4 4 3 4 4 4 4 4 4 4 3 3 3 3 3 3 2 2 2
11 11 8 5 6 6 7 7 10 8 11 13 17 16 16 13 12 9 8 8 6 4 4 5 4 4 3 3 2 2 2 3 3 3 3 2 2 2 2 2 1 1 1 1
8 9 8 7 7 7 6 6 7 7 10 12 13 15 8 8 7 8 9 7 5 4 4 4 4 3 3 2 1 1 1 2 2 2 1 1 1 1 1 0 0 0 0 -0
6 7 9 11 0 0 3 5 6 10 9 9 8 11 6 3 1 0 5 5 4 3 2 2 2 2 1 0 -0 -0 1 1 1 1 1 1 1 0 0 0 -0 -1 -2 -2
3 8 9 9 4 3 3 3 3 4 5 8 8 10 5 4 3 2 2 3 3 2 2 1 1 1 0 -0 -1 -1 -2 -2 -2 -2 -1 -0 -1 -1 -1 -1 -2 -2 -1 -1
6 7 8 10 10 6 5 4 2 4 6 8 8 8 6 3 3 2 3 3 2 1 -0 -0 0 -0 -1 -2 -2 -3 -3 -3 -2 -1 -1 -2 -2 -3 -4 -4 -4 -3 -2 -2
6 5 8 9 9 7 5 5 3 2 5 5 7 5 5 1 -0 -1 -1 0 0 0 -1 -2 -2 -2 -3 -3 -3 -4 -3 -3 -3 -3 -3 -3 -4 -4 -4 -4 -3 -2 -2 -2
5 5 4 3 7 5 4 4 4 3 4 3 3 3 -0 0 0 0 -1 -1 -1 -2 -3 -2 -2 -3 -3 -3 -4 -4 -4 -4 -3 -3 -4 -4 -5 -5 -4 -3 -3 -3 -3 -3
2 4 4 5 6 4 3 3 3 4 3 3 3 3 0 0 -1 -2 -2 -2 -1 -2 -3 -3 -3 -4 -4 -4 -4 -4 -4 -4 -4 -4 -5 -5 -5 -3 -3 -3 -4 -4 -3 -3
3 3 4 4 4 4 2 -0 -0 1 1 -0 -0 0 -0 -1 -2 -3 -3 -3 -3 -3 -3 -4 -4 -4 -4 -4 -5 -5 -5 -5 -5 -5 -5 -5 -4 -4 -4 -4 -4 -4 -4 -4
3 4 3 3 5 7 6 2 0 0 3 0 0 -1 -1 -2 -3 -1 -2 -2 -3 -3 -4 -4 -4 -4 -5 -5 -5 -5 -5 -5 -5 -6 -5 -5 -5 -5 -5 -5 -5 -5 -5 -5
1 3 2 4 2 4 5 2 1 0 2 -0 -1 -0 -0 -2 -0 2 -0 -2 -2 -3 -4 -4 -4 -5 -5 -5 -5 -6 -6 -6 -6 -6 -5 -5 -5 -5 -6 -6 -6 -6 -6 -6
1 1 1 2 3 5 4 0 -1 1 2 0 0 -0 -1 -1 -1 -1 -2 -2 -3 -3 -4 -4 -5 -5 -5 -5 -6 -6 -6 -6 -6 -6 -6 -6 -6 -6 -6 -7 -7 -7 -7 -7
1 1 2 2 2 1 2 -0 1 2 1 1 -0 -1 -1 -1 -1 -2 -3 -4 -4 -4 -5 -5 -5 -5 -5 -6 -6 -6 -6 -6 -6 -6 -7 -7 -7 -7 -7 -7 -8 -8 -8 -8
-0 3 3 4 4 2 1 2 2 0 -1 -1 -2 -2 -2 -3 -2 -4 -4 -5 -5 -5 -5 -5 -5 -6 -6 -6 -6 -6 -7 -7 -7 -7 -7 -7 -7 -8 -8 -8 -8 -8 -8 -9
2 0 0 1 3 1 -0 -0 -0 -1 -2 -2 -3 -3 -4 -4 -3 -4 -4 -5 -5 -5 -5 -5 -6 -6 -6 -7 -7 -7 -7 -7 -7 -7 -7 -8 -8 -8 -8 -8 -9 -9 -9 -9
-0 -1 1 1 1 -1 -0 -1 -2 -3 -3 -4 -4 -4 -4 -4 -4 -4 -4 -5 -5 -5 -5 -5 -6 -7 -7 -7 -7 -7 -8 -8 -8 -8 -8 -8 -9 -9 -9 -9 -9 -9 -9 -9
-1 -3 -1 -0 -3 -4 -3 -3 -4 -4 -5 -5 -5 -5 -5 -5 -5 -5 -5 -5 -5 -5 -5 -6 -7 -7 -7 -7 -8 -8 -8 -8 -8 -9 -9 -9 -9 -9 -9 -9 -9 -9 -9 -9
Height
1485 1483 1478 1469 1470 1475 1479 1478 1477 1472 1490 1490 1479 1474 1470 1472 1474 1477 1477 1479 1481 1484 1488 1491 1494 1497 1501 1505 1508 1511 1515 1518 1521 1524 1527 1531 1533 1535 1537 1539 1541 1543 1544 1544
1484 1479 1477 1480 1482 1482 1481 1481 1478 1477 1490 1492 1476 1471 1466 1466 1471 1472 1474 1477 1479 1483 1485 1488 1491 1495 1498 1502 1505 1509 1513 1516 1519 1523 1526 1530 1532 1534 1536 1538 1540 1542 1543 1544
1477 1479 1484 1484 1484 1484 1481 1481 1478 1486 1488 1487 1487 1466 1454 1464 1468 1472 1474 1475 1478 1480 1483 1486 1489 1492 1496 1500 1503 1507 1511 1514 1518 1521 1524 1527 1530 1532 1534 1537 1538 1540 1542 1543
1477 1485 1485 1485 1482 1483 1483 1486 1489 1491 1491 1487 1486 1477 1448 1453 1464 1467 1470 1473 1476 1479 1482 1484 1487 1491 1494 1498 1502 1506 1509 1512 1516 1518 1522 1525 1528 1530 1533 1535 1537 1539 1540 1542
1480 1486 1487 1486 1483 1485 1487 1492 1492 1494 1495 1497 1479 1496 1457 1451 1455 1458 1465 1470 1475 1477 1480 1483 1486 1490 1494 1497 1499 1503 1507 1510 1513 1517 1520 1524 1527 1530 1531 1533 1535 1537 1539 1540
1486 1490 1490 1490 1494 1494 1495 1493 1494 1494 1492 1501 1482 1478 1454 1443 1449 1447 1461 1469 1474 1477 1480 1483 1486 1489 1493 1495 1498 1501 1504 1508 1511 1515 1518 1522 1525 1527 1529 1531 1533 1535 1538 1539
1484 1487 1494 1494 1492 1497 1497 1491 1489 1491 1499 1480 1487 1488 1458 1448 1459 1462 1460 1471 1476 1477 1479 1482 1485 1487 1489 1492 1495 1499 1502 1505 1510 1514 1516 1519 1522 1525 1528 1530 1532 1533 1535 1537
1474 1478 1492 1499 1497 1497 1493 1500 1487 1487 1464 1457 1488 1477 1453 1464 1468 1468 1467 1474 1477 1479 1480 1482 1484 1487 1489 1491 1494 1498 1501 1504 1507 1512 1515 1518 1520 1523 1525 1528 1530 1532 1534 1535
1476 1476 1499 1500 1500 1500 1495 1497 1496 1501 1497 1489 1456 1445 1460 1465 1469 1472 1474 1476 1478 1479 1481 1483 1485 1487 1489 1491 1494 1497 1500 1503 1506 1509 1513 1515 1517 1520 1523 1526 1528 1530 1532 1534
1487 1485 1496 1501 1502 1502 1499 1502 1493 1498 1488 1471 1446 1450 1448 1458 1462 1471 1474 1476 1479 1480 1481 1483 1485 1487 1490 1492 1494 1496 1499 1502 1504 1507 1511 1513 1515 1518 1521 1524 1526 1528 1530 1532
1494 1492 1494 1499 1496 1491 1502 1499 1499 1498 1485 1473 1463 1452 1470 1470 1474 1473 1475 1478 1480 1481 1482 1483 1485 1488 1490 1492 1494 1495 1497 1499 1502 1504 1509 1511 1513 1516 1518 1522 1525 1527 1529 1531
1498 1495 1487 1479 1505 1506 1503 1498 1498 1484 1482 1483 1487 1465 1476 1478 1479 1480 1478 1480 1481 1482 1482 1483 1485 1486 1488 1490 1492 1495 1496 1498 1499 1502 1505 1509 1511 1515 1517 1519 1523 1525 1527 1529
1501 1492 1486 1479 1501 1504 1501 1503 1504 1502 1498 1482 1482 1463 1477 1478 1480 1480 1481 1481 1481 1481 1481 1483 1483 1484 1485 1487 1489 1493 1495 1495 1496 1498 1502 1507 1510 1512 1516 1517 1519 1523 1525 1527
1498 1493 1489 1479 1476 1491 1497 1498 1502 1499 1491 1476 1467 1466 1473 1478 1480 1480 1480 1479 1479 1478 1478 1479 1481 1483 1485 1485 1487 1487 1488 1491 1497 1497 1501 1505 1509 1510 1513 1515 1518 1521 1523 1523
1499 1497 1485 1481 1481 1486 1491 1490 1494 1496 1486 1485 1465 1476 1478 1482 1483 1480 1478 1475 1474 1474 1475 1478 1480 1480 1481 1483 1484 1486 1487 1489 1496 1496 1499 1503 1506 1508 1511 1514 1517 1518 1519 1519
1500 1494 1496 1496 1482 1484 1487 1484 1485 1486 1485 1484 1482 1478 1482 1482 1480 1479 1478 1476 1473 1473 1472 1474 1476 1477 1478 1482 1485 1486 1488 1490 1493 1496 1497 1502 1505 1508 1511 1512 1513 1515 1515 1516
1504 1497 1497 1485 1483 1487 1484 1474 1476 1477 1478 1478 1481 1477 1481 1480 1480 1480 1477 1475 1473 1472 1472 1472 1474 1476 1477 1480 1484 1486 1489 1491 1493 1495 1497 1501 1504 1507 1508 1510 1511 1511 1512 1512
1498 1501 1498 1490 1488 1481 1474 1479 1480 1478 1477 1480 1481 1480 1481 1481 1479 1477 1475 1474 1472 1471 1471 1472 1473 1476 1478 1481 1484 1486 1488 1490 1492 1496 1498 1499 1501 1502 1504 1505 1506 1508 1508 1508
1497 1496 1492 1490 1475 1460 1462 1473 1478 1478 1470 1474 1476 1478 1479 1480 1479 1474 1472 1471 1471 1470 1470 1471 1473 1476 1478 1481 1484 1486 1488 1490 1492 1495 1495 1496 1498 1499 1501 1501 1503 1503 1503 1503
1498 1495 1495 1481 1486 1466 1458 1470 1473 1476 1470 1471 1474 1475 1475 1477 1474 1469 1469 1469 1469 1469 1470 1471 1473 1476 1479 1481 1483 1485 1487 1489 1492 1493 1492 1493 1494 1496 1497 1497 1498 1498 1498 1498
1493 1493 1487 1480 1474 1459 1463 1471 1474 1473 1469 1472 1473 1472 1472 1473 1470 1467 1467 1467 1467 1467 1467 1469 1472 1474 1477 1480 1482 1483 1484 1486 1488 1489 1490 1489 1490 1491 1492 1492 1492 1493 1493 1493
1480 1481 1478 1477 1472 1471 1466 1474 1472 1468 1468 1469 1468 1468 1467 1466 1465 1464 1463 1463 1464 1465 1466 1468 1470 1473 1475 1478 1479 1479 1481 1483 1485 1486 1486 1486 1486 1486 1487 1487 1488 1489 1489 1487
1482 1469 1465 1465 1460 1465 1466 1465 1467 1467 1466 1465 1465 1464 1463 1462 1460 1459 1459 1459 1461 1463 1464 1466 1468 1470 1473 1475 1476 1477 1478 1479 1480 1480 1480 1481 1482 1482 1483 1483 1484 1484 1483 1484
1471 1472 1470 1467 1460 1465 1466 1467 1467 1466 1465 1463 1461 1459 1459 1456 1455 1454 1455 1455 1457 1459 1461 1463 1465 1467 1470 1471 1472 1473 1474 1475 1475 1476 1476 1477 1477 1478 1478 1478 1479 1479 1479 1479
1476 1475 1467 1465 1464 1464 1464 1466 1466 1464 1462 1459 1457 1455 1452 1450 1448 1449 1450 1451 1453 1455 1458 1460 1461 1463 1465 1466 1467 1469 1469 1470 1471 1471 1472 1472 1472 1473 1473 1474 1474 1474 1474 1474
1475 1475 1469 1464 1471 1471 1466 1466 1466 1462 1460 1458 1454 1447 1445 1445 1444 1444 1446 1448 1450 1451 1453 1456 1458 1459 1461 1462 1463 1464 1465 1466 1466 1466 1467 1467 1468 1468 1469 1469 1469 1469 1469 1469
Wind_Speed
4 7 9 9 8 7 6 7 10 5 3 4 9 15 13 12 10 12 10 6 10 14 14 18 20 21 21 22 23 23 22 22 21 20 18 16 14 13 12 11 10 9 8 7
4 11 3 4 0 3 5 7 10 2 2 3 10 16 15 11 11 12 8 7 11 15 16 18 20 21 22 23 24 23 23 23 22 20 18 15 14 14 14 12 11 10 9 8
12 3 3 2 3 6 8 9 7 5 3 8 8 11 9 8 11 10 9 8 10 16 17 19 21 21 22 23 25 24 23 22 22 20 20 18 17 16 15 15 13 12 10 8
7 3 3 4 6 6 8 4 1 2 2 3 1 5 7 11 11 12 13 11 11 13 14 17 19 20 21 22 23 23 23 22 22 22 20 18 16 16 15 15 15 13 11 9
1 2 4 6 0 2 2 2 1 1 2 4 8 2 7 2 12 15 14 12 10 11 13 16 18 18 18 20 24 24 22 22 23 21 19 18 14 12 15 16 15 14 12 11
2 1 2 4 5 3 7 2 2 1 1 3 4 7 8 8 4 8 14 11 9 10 11 13 14 16 17 20 22 23 23 22 22 22 21 18 17 17 15 15 15 14 13 11
4 3 3 1 2 4 2 2 2 3 2 5 4 4 9 6 7 8 11 10 6 7 12 14 16 17 18 20 22 22 22 23 21 21 21 19 17 15 14 14 14 13 12 11
4 4 1 2 2 1 7 4 3 5 7 5 3 5 3 6 6 7 10 7 3 5 9 13 14 15 17 20 21 21 22 22 22 20 19 18 16 15 15 15 14 13 11 11
3 2 3 4 1 0 4 5 3 2 2 3 8 10 9 4 4 4 5 5 4 3 5 9 12 13 15 17 19 19 20 21 20 20 19 18 18 17 16 15 14 13 11 9
3 4 1 3 1 1 1 2 3 2 4 8 8 5 6 5 2 3 4 3 2 2 3 6 10 12 13 14 16 18 18 20 20 20 18 18 17 16 14 14 12 11 10 9
1 2 4 2 6 4 4 2 3 2 3 4 9 4 4 5 6 5 3 3 2 2 3 6 9 10 12 14 15 18 19 20 19 19 18 18 17 16 15 12 11 10 9 8
3 1 5 3 3 2 2 1 2 4 4 2 3 5 4 3 3 3 3 3 3 2 3 6 9 12 14 15 17 18 20 20 20 20 20 19 18 16 15 14 12 10 8 8
3 2 4 3 2 2 2 3 1 0 2 8 6 3 1 3 5 3 4 7 9 9 8 8 10 14 16 17 17 17 19 21 23 22 20 19 18 16 12 10 6 5 7 9
1 3 6 10 10 2 3 5 4 3 4 9 13 16 2 7 8 10 12 14 14 14 11 10 12 14 15 17 19 23 26 21 20 21 20 18 14 11 8 6 5 8 11 12
2 4 11 13 13 8 7 7 7 10 12 11 19 15 11 7 8 12 18 19 18 20 17 14 15 18 19 22 23 21 20 22 20 20 18 14 11 7 3 4 9 11 12 12
1 3 3 5 13 10 12 13 12 13 13 14 15 17 2 9 10 11 14 15 13 13 18 17 19 21 21 20 19 21 21 20 17 15 12 8 5 3 7 10 11 12 12 12
1 2 2 5 3 9 10 13 10 5 4 4 6 2 4 3 7 9 12 13 15 16 16 17 18 19 21 23 22 19 17 14 11 9 7 4 4 8 9 10 10 11 12 13
4 4 3 4 5 5 1 2 1 2 3 3 4 4 3 5 8 11 10 9 9 11 14 18 20 21 22 21 19 16 14 11 8 7 7 8 9 9 9 10 11 12 12 12
11 7 3 4 7 13 10 5 5 5 1 6 3 2 4 5 9 17 14 10 9 11 13 18 20 20 19 18 14 11 9 8 7 8 7 7 8 9 10 11 12 12 12 12
5 9 5 5 5 7 4 6 6 4 8 9 8 5 7 3 6 6 7 9 10 12 14 17 18 18 17 15 12 10 8 7 8 8 8 9 10 10 11 11 11 12 12 12
5 6 14 12 9 8 6 10 7 4 1 6 6 12 10 6 14 14 11 10 10 12 15 17 18 17 16 15 12 10 8 9 9 9 10 11 11 11 11 11 11 12 11 12
9 7 6 6 7 10 13 8 4 3 5 10 11 12 15 21 21 20 16 14 16 18 19 18 18 17 16 14 11 9 10 11 12 13 12 11 10 10 10 10 11 11 11 11
4 6 5 8 4 11 10 11 8 11 16 16 13 17 18 21 22 18 17 20 21 21 20 18 17 16 15 13 13 13 13 12 11 10 10 11 12 11 11 11 11 11 11 11
4 5 4 4 6 9 10 12 13 8 13 17 19 18 16 20 21 19 19 22 23 22 20 17 16 16 16 14 13 12 12 12 12 13 13 13 12 12 11 11 11 11 11 11
4 3 5 10 11 11 4 8 13 19 18 21 21 20 21 21 19 20 20 20 22 20 19 19 18 16 15 14 15 15 14 13 13 13 13 13 11 10 11 11 11 11 11 12
4 5 4 5 11 6 14 13 19 18 17 18 22 23 19 19 21 18 17 18 18 19 19 19 18 16 16 16 16 15 14 14 12 11 11 12 11 11 11 11 11 12 13 13
Wind_Direction
191 229 225 249 230 317 297 286 276 279 98 285 256 271 268 252 250 236 219 213 195 190 186 184 184 183 185 188 190 195 194 196 197 196 194 194 193 192 190 188 180 171 161 149
209 240 28 67 81 241 247 259 266 200 162 262 284 279 272 262 236 217 211 197 183 176 176 178 181 183 188 189 192 195 197 200 201 200 196 193 197 195 199 194 190 185 180 174
252 54 99 209 197 224 236 246 269 276 316 243 290 271 230 215 206 201 208 196 186 190 184 181 182 184 187 190 194 196 199 201 200 197 196 193 199 200 202 200 198 196 193 190
259 88 207 224 244 232 273 27 282 275 291 275 254 285 235 186 211 213 205 197 191 189 189 186 184 184 187 190 196 196 199 200 200 202 203 206 208 206 207 207 206 204 205 206
143 176 187 225 288 247 46 57 106 179 284 334 209 210 265 262 227 217 208 191 185 186 186 184 186 185 184 187 196 195 199 199 202 202 200 199 197 196 205 204 207 209 212 215
30 64 346 33 70 44 123 141 178 245 253 248 241 215 259 244 259 225 186 183 179 182 182 180 178 178 176 186 190 193 196 196 201 197 196 195 196 207 207 209 209 212 217 221
160 159 88 38 156 110 195 206 270 228 201 251 146 191 256 337 44 343 162 174 177 177 177 176 175 175 179 183 186 190 191 194 198 199 200 199 206 210 211 207 205 209 214 218
268 231 117 9 34 135 193 165 247 270 283 318 153 234 251 52 44 44 92 125 147 158 175 182 182 179 183 184 187 187 190 194 196 198 199 200 200 198 199 198 204 203 209 219
286 173 117 59 29 333 146 209 31 286 204 256 246 247 129 85 97 113 121 141 105 108 171 181 181 182 180 181 184 187 192 192 192 196 198 196 193 195 196 196 197 201 211 216
35 275 47 105 197 116 215 13 185 191 271 269 264 288 264 55 61 160 180 176 105 81 142 177 184 182 181 179 181 183 186 186 189 190 190 188 186 186 184 188 191 194 199 206
11 287 120 172 202 171 162 228 215 306 261 267 286 259 36 44 14 343 215 179 184 147 147 171 179 180 176 174 177 177 179 182 181 182 185 184 180 180 180 178 182 192 202 218
56 274 255 291 72 47 354 28 224 243 192 244 306 268 34 31 348 283 298 194 236 223 191 176 179 176 177 177 179 183 183 183 186 186 188 185 183 180 181 184 200 214 233 243
238 203 296 202 130 141 222 182 200 255 264 244 260 256 140 61 30 15 269 253 242 236 221 195 184 184 180 178 176 176 178 181 180 181 179 183 183 185 202 201 201 238 255 260
260 266 240 264 311 114 228 191 205 214 250 272 248 276 330 11 357 337 306 275 252 235 221 202 187 181 178 174 173 176 184 183 183 179 181 185 189 184 177 184 221 248 253 262
341 260 274 280 288 287 246 250 200 210 242 249 279 291 315 334 326 311 309 310 280 257 242 215 200 189 184 185 188 190 186 178 183 184 184 178 171 161 156 225 245 251 257 263
58 270 352 273 268 250 263 258 247 247 252 264 275 280 84 306 318 315 311 307 274 247 243 232 220 212 200 202 191 174 170 169 170 166 154 145 133 172 233 242 251 257 262 266
312 289 302 268 14 314 271 252 231 211 203 224 245 301 333 328 344 325 319 312 285 259 237 228 213 197 185 174 171 169 167 162 158 146 139 143 211 238 250 256 259 262 264 267
204 202 243 273 299 252 61 164 62 256 273 207 276 289 313 291 294 289 289 285 273 245 223 201 191 183 175 173 171 168 163 162 156 166 185 208 228 241 249 255 259 264 267 270
229 222 241 247 243 281 240 188 189 190 232 190 190 232 255 285 302 285 258 264 241 215 219 205 193 184 176 173 170 170 172 185 196 211 224 238 249 255 259 261 261 262 266 269
217 243 246 208 249 264 98 135 122 113 268 160 179 223 255 215 279 311 272 257 241 226 215 201 190 184 182 180 182 188 200 213 224 236 249 256 257 256 256 257 259 264 267 270
192 212 226 232 246 261 79 139 152 229 57 145 286 281 270 229 242 281 276 247 226 210 192 188 186 187 190 192 197 206 218 230 244 255 257 256 256 256 257 259 262 264 265 269
197 196 200 237 252 256 137 141 236 27 293 319 312 294 287 278 270 266 256 226 216 199 188 190 192 195 196 205 216 232 239 247 249 249 250 256 261 264 265 267 268 265 267 276
247 239 284 209 228 125 185 277 294 310 308 306 298 300 285 280 279 258 223 218 210 202 200 203 206 201 208 221 228 232 238 245 253 263 269 269 267 266 263 260 260 266 271 271
255 237 247 287 290 13 335 303 304 323 314 300 295 296 288 281 280 249 220 218 207 210 215 215 210 214 221 224 235 245 253 259 263 263 261 261 262 261 261 262 264 265 266 269
343 322 292 289 292 329 327 357 333 322 315 310 303 294 287 282 268 229 209 218 218 219 220 220 219 219 224 235 242 245 249 255 257 258 257 255 255 254 258 261 262 266 271 273
278 348 288 277 6 315 301 320 320 315 314 309 310 309 298 268 248 221 225 228 226 222 220 223 224 227 237 244 249 255 259 260 256 254 255 253 250 251 251 254 260 267 271 268